Weather History for Corning, AR

Change the Weather History Date:

Sunday, May 12, 2013

  Actual Average (KARG) Record (KARG)
Temperature  
Mean Temperature 57 °F -  
Max Temperature 68 °F 76 °F 91 °F (2005)
Min Temperature 46 °F 57 °F 42 °F (2008)
Degree Days  
Heating Degree Days 8    
Growing Degree Days 7 (Base 50)    
Moisture  
Dew Point 34 °F    
Average Humidity 45    
Maximum Humidity 82    
Minimum Humidity 21    
Precipitation  
Precipitation 0.00 in - - ()
Sea Level Pressure  
Sea Level Pressure 30.20 in    
Wind  
Wind Speed 6 mph (NW)    
Max Wind Speed 13 mph    
Max Gust Speed 21 mph    
Visibility 10 miles    
Events      
Averages and records for this station are not official NWS values.
T = Trace of Precipitation, MM = Missing Value Source: NWS Daily Summary

Daily Weather History Graph

Daily Weather History Graph

Search for Another Location

Airport:

Trip Planner

Search our weather history database for the weather conditions in past years. The results will help you decide how hot, cold, wet, or windy it might be!

Date:

Astronomy

May. 12, 2013 Rise Set
Actual Time 5:58 AM CDT 8:00 PM CDT
Civil Twilight 5:29 AM CDT 8:28 PM CDT
Nautical Twilight 4:55 AM CDT 9:03 PM CDT
Astronomical Twilight 4:17 AM CDT 9:41 PM CDT
Moon 7:54 AM CDT (5/12) 10:26 PM CDT (5/12)
Length of Visible Light 14h 59m
Length of Day
14h 01m
Waxing Crescent, 7% of the Moon is Illuminated
May 12
Waxing Crescent
May 17
First Quarter
May 24
Full
May 31
Last Quarter
Jun 8
New

Hourly Weather History & Observations

Time (CDT) Temp. Windchill Dew Point Humidity Pressure Visibility Wind Dir Wind Speed Gust Speed Precip Events Conditions
12:15 AM 55.4 °F - 39.2 °F 54% 30.17 in 10.0 mi North 5.8 mph - N/A   Clear
12:35 AM 55.4 °F - 39.2 °F 54% 30.17 in 10.0 mi North 5.8 mph - N/A   Clear
12:55 AM 53.6 °F - 39.2 °F 58% 30.18 in 10.0 mi NNW 6.9 mph - N/A   Clear
1:15 AM 53.6 °F - 39.2 °F 58% 30.18 in 10.0 mi NNW 4.6 mph - N/A   Clear
1:35 AM 51.8 °F - 41.0 °F 67% 30.18 in 10.0 mi NNW 5.8 mph - N/A   Clear
1:55 AM 51.8 °F - 41.0 °F 67% 30.18 in 10.0 mi NNW 5.8 mph - N/A   Clear
2:15 AM 51.8 °F - 39.2 °F 62% 30.18 in 10.0 mi North 9.2 mph - N/A   Clear
2:35 AM 51.8 °F - 37.4 °F 58% 30.19 in 10.0 mi North 5.8 mph - N/A   Clear
2:55 AM 51.8 °F - 37.4 °F 58% 30.18 in 10.0 mi North 8.1 mph - N/A   Clear
3:15 AM 50.0 °F - 37.4 °F 62% 30.18 in 10.0 mi North 6.9 mph - N/A   Clear
3:35 AM 50.0 °F - 37.4 °F 62% 30.19 in 10.0 mi North 5.8 mph - N/A   Clear
3:55 AM 50.0 °F - 37.4 °F 62% 30.19 in 10.0 mi North 3.5 mph - N/A   Clear
4:15 AM 48.2 °F - 37.4 °F 66% 30.20 in 10.0 mi NNW 4.6 mph - N/A   Clear
4:35 AM 48.2 °F - 37.4 °F 66% 30.21 in 10.0 mi NW 4.6 mph - N/A   Clear
4:55 AM 46.4 °F 43.5 °F 37.4 °F 71% 30.21 in 10.0 mi NW 5.8 mph - N/A   Clear
5:15 AM 46.4 °F 44.3 °F 37.4 °F 71% 30.21 in 10.0 mi NW 4.6 mph - N/A   Clear
5:35 AM 46.4 °F 44.3 °F 37.4 °F 71% 30.22 in 10.0 mi NNW 4.6 mph - N/A   Clear
5:55 AM 46.4 °F 44.3 °F 37.4 °F 71% 30.23 in 10.0 mi NNW 4.6 mph - N/A   Clear
6:15 AM 46.4 °F 44.3 °F 37.4 °F 71% 30.24 in 10.0 mi NW 4.6 mph - N/A   Clear
6:35 AM 46.4 °F 45.2 °F 37.4 °F 71% 30.25 in 10.0 mi WNW 3.5 mph - N/A   Clear
6:55 AM 48.2 °F - 37.4 °F 66% 30.25 in 10.0 mi NW 3.5 mph - N/A   Clear
7:15 AM 48.2 °F - 37.4 °F 66% 30.25 in 10.0 mi NW 5.8 mph - N/A   Clear
7:35 AM 50.0 °F - 37.4 °F 62% 30.25 in 10.0 mi NW 4.6 mph - N/A   Clear
7:55 AM 51.8 °F - 37.4 °F 58% 30.26 in 10.0 mi NW 4.6 mph - N/A   Clear
8:15 AM 53.6 °F - 37.4 °F 54% 30.27 in 10.0 mi NW 4.6 mph - N/A   Clear
8:35 AM 55.4 °F - 35.6 °F 47% 30.28 in 10.0 mi NW 5.8 mph - N/A   Clear
8:55 AM 55.4 °F - 32.0 °F 41% 30.28 in 10.0 mi NNW 6.9 mph - N/A   Clear
9:15 AM 57.2 °F - 30.2 °F 36% 30.27 in 10.0 mi NNW 5.8 mph - N/A   Clear
9:35 AM 57.2 °F - 26.6 °F 31% 30.27 in 10.0 mi North 10.4 mph - N/A   Clear
9:55 AM 57.2 °F - 26.6 °F 31% 30.27 in 10.0 mi North 8.1 mph - N/A   Clear
10:15 AM 59.0 °F - 28.4 °F 31% 30.26 in 10.0 mi North 12.7 mph 20.7 mph N/A   Clear
10:35 AM 59.0 °F - 28.4 °F 31% 30.26 in 10.0 mi NW 11.5 mph - N/A   Clear
10:55 AM 60.8 °F - 28.4 °F 29% 30.26 in 10.0 mi North 12.7 mph 17.3 mph N/A   Clear
11:15 AM 59.0 °F - 28.4 °F 31% 30.26 in 10.0 mi North 8.1 mph 18.4 mph N/A   Clear
11:35 AM 60.8 °F - 26.6 °F 27% 30.25 in 10.0 mi NNW 6.9 mph 17.3 mph N/A   Unknown
11:55 AM 62.6 °F - 28.4 °F 27% 30.25 in 10.0 mi North 8.1 mph - N/A   Unknown
12:15 PM 62.6 °F - 28.4 °F 27% 30.24 in 10.0 mi North 4.6 mph - N/A   Clear
12:35 PM 62.6 °F - 28.4 °F 27% 30.23 in 10.0 mi North 11.5 mph 16.1 mph N/A   Clear
12:55 PM 64.4 °F - 30.2 °F 28% 30.23 in 10.0 mi NNW 11.5 mph - N/A   Clear
1:15 PM 64.4 °F - 28.4 °F 26% 30.22 in 10.0 mi NNW 8.1 mph - N/A   Clear
1:35 PM 64.4 °F - 32.0 °F 30% 30.21 in 10.0 mi NNW 9.2 mph - N/A   Clear
1:55 PM 64.4 °F - 28.4 °F 26% 30.21 in 10.0 mi NW 4.6 mph - N/A   Clear
2:15 PM 66.2 °F - 28.4 °F 24% 30.20 in 10.0 mi North 8.1 mph - N/A   Clear
2:35 PM 66.2 °F - 30.2 °F 26% 30.19 in 10.0 mi NNW 12.7 mph 16.1 mph N/A   Clear
2:55 PM 66.2 °F - 28.4 °F 24% 30.19 in 10.0 mi WNW 10.4 mph - N/A   Clear
3:15 PM 68.0 °F - 28.4 °F 23% 30.18 in 10.0 mi North 5.8 mph - N/A   Clear
3:35 PM 68.0 °F - 28.4 °F 23% 30.17 in 10.0 mi West 5.8 mph - N/A   Clear
3:55 PM 68.0 °F - 30.2 °F 24% 30.17 in 10.0 mi NNW 4.6 mph - N/A   Clear
4:15 PM 68.0 °F - 26.6 °F 21% 30.17 in 10.0 mi WNW 3.5 mph - N/A   Clear
4:35 PM 68.0 °F - 28.4 °F 23% 30.17 in 10.0 mi West 9.2 mph - N/A   Clear
4:55 PM 68.0 °F - 28.4 °F 23% 30.16 in 10.0 mi West 6.9 mph - N/A   Clear
5:15 PM 68.0 °F - 26.6 °F 21% 30.16 in 10.0 mi WNW 3.5 mph - N/A   Clear
5:35 PM 68.0 °F - 28.4 °F 23% 30.16 in 10.0 mi West 9.2 mph - N/A   Clear
5:55 PM 68.0 °F - 30.2 °F 24% 30.16 in 10.0 mi WNW 3.5 mph - N/A   Clear
6:15 PM 68.0 °F - 30.2 °F 24% 30.16 in 10.0 mi WNW 6.9 mph - N/A   Clear
6:35 PM 68.0 °F - 28.4 °F 23% 30.15 in 10.0 mi NW 5.8 mph - N/A   Clear
6:55 PM 66.2 °F - 32.0 °F 28% 30.14 in 10.0 mi WSW 5.8 mph - N/A   Clear
7:15 PM 66.2 °F - 32.0 °F 28% 30.14 in 10.0 mi West 8.1 mph - N/A   Clear
7:35 PM 64.4 °F - 35.6 °F 34% 30.14 in 10.0 mi West 6.9 mph - N/A   Clear
7:55 PM 62.6 °F - 37.4 °F 39% 30.14 in 10.0 mi West 6.9 mph - N/A   Clear
8:15 PM 60.8 °F - 39.2 °F 45% 30.15 in 10.0 mi West 6.9 mph - N/A   Clear
8:35 PM 59.0 °F - 41.0 °F 51% 30.15 in 10.0 mi West 5.8 mph - N/A   Clear
8:55 PM 59.0 °F - 41.0 °F 51% 30.16 in 10.0 mi West 5.8 mph - N/A   Clear
9:15 PM 59.0 °F - 41.0 °F 51% 30.16 in 10.0 mi WNW 4.6 mph - N/A   Clear
9:35 PM 57.2 °F - 41.0 °F 55% 30.17 in 10.0 mi WNW 3.5 mph - N/A   Clear
9:55 PM 59.0 °F - 37.4 °F 45% 30.17 in 10.0 mi NW 5.8 mph - N/A   Clear
10:15 PM 57.2 °F - 39.2 °F 51% 30.17 in 10.0 mi North 6.9 mph - N/A   Clear
10:35 PM 55.4 °F - 39.2 °F 54% 30.17 in 10.0 mi NNW 4.6 mph - N/A   Clear
10:55 PM 53.6 °F - 44.6 °F 72% 30.18 in 10.0 mi NW 5.8 mph - N/A   Clear
11:15 PM 53.6 °F - 42.8 °F 67% 30.18 in 10.0 mi SSW 4.6 mph - N/A   Clear
11:35 PM 53.6 °F - 44.6 °F 72% 30.18 in 10.0 mi Calm Calm - N/A   Clear
11:55 PM 50.0 °F - 44.6 °F 82% 30.19 in 10.0 mi WSW 4.6 mph - N/A   Clear